Willimantic, CT

8:57 AM EST on December 14, 2019 (GMT -0500)
Windham

Weather History for KIJD - October, 2019

Change the Weather History Date:

Thursday, October 17, 2019

  Actual Average Record
Temperature  
Mean Temperature 52 °F -  
Max Temperature 57 °F 63 °F 81 °F (1956)
Min Temperature 48 °F 36 °F 25 °F (1961)
Degree Days  
Heating Degree Days 12    
Growing Degree Days 2 (Base 50)    
Moisture  
Dew Point 47 °F    
Average Humidity 83    
Maximum Humidity 100    
Minimum Humidity 59    
Precipitation  
Precipitation 1.29 in - - ()
Sea Level Pressure  
Sea Level Pressure 29.12 in    
Wind  
Wind Speed 12 mph ()    
Max Wind Speed 24 mph    
Max Gust Speed 40 mph    
Visibility 7.4 miles    
Events Rain    
Averages and records for this station are not official NWS values.
T = Trace of Precipitation, MM = Missing Value Source: Averaged Metar Reports

Daily Weather History Graph

Daily Weather History Graph

Search for Another Location

Airport or City:

Astronomy

Oct. 17, 2019 Rise Set
Actual Time 7:02 AM EDT 6:04 PM EDT
Civil Twilight 6:34 AM EDT 6:32 PM EDT
Nautical Twilight 6:02 AM EDT 7:04 PM EDT
Astronomical Twilight 5:30 AM EDT 7:37 PM EDT
Moon 8:31 PM EDT (10/17) 10:34 AM EDT (10/17)
Length of Visible Light 11h 57m
Length of Day
11h 01m
Waning Gibbous, 87% of the Moon is Illuminated
Oct 17
Waning Gibbous
Oct 21
Last Quarter
Oct 27
New
Nov 4
First Quarter
Nov 12
Full

Hourly Weather History & Observations

Time (EDT) Temp. Dew Point Humidity Pressure Visibility Wind Dir Wind Speed Gust Speed Precip Events Conditions
12:10 AM 55.9 °F 55.0 °F 97% 29.13 in 1.2 mi West 12.7 mph 18.4 mph 0.28 in Rain Heavy Rain
12:21 AM 55.9 °F 55.0 °F 97% 29.11 in 1.2 mi NW 11.5 mph 21.9 mph 0.49 in Rain Heavy Rain
12:41 AM 55.9 °F 55.0 °F 97% 29.07 in 3.0 mi North 12.7 mph 20.7 mph 0.66 in Rain Heavy Rain
12:48 AM 55.4 °F 55.4 °F 100% 29.06 in 3.0 mi NE 11.5 mph - 0.70 in Rain Heavy Rain
12:52 AM 55.9 °F 55.0 °F 97% 29.05 in 2.0 mi NNE 11.5 mph - 0.73 in Rain Heavy Rain
1:09 AM 55.9 °F 55.9 °F 100% 29.05 in 1.8 mi East 5.8 mph - 0.19 in Rain Heavy Rain
1:14 AM 55.9 °F 55.9 °F 100% 29.03 in 2.0 mi ENE 11.5 mph - 0.25 in Rain Heavy Rain
1:21 AM 55.9 °F 55.0 °F 97% 29.02 in 1.2 mi ENE 9.2 mph - 0.37 in Rain Heavy Rain
1:29 AM 55.9 °F 55.9 °F 100% 29.01 in 3.0 mi ENE 9.2 mph - 0.40 in Rain Rain
1:52 AM 57.0 °F 55.9 °F 96% 28.97 in 9.0 mi NE 6.9 mph - 0.41 in Rain Light Rain
2:32 AM 57.0 °F 55.9 °F 96% 28.92 in 4.0 mi Calm Calm - 0.02 in Rain Light Rain
2:49 AM 57.2 °F 57.2 °F 100% 28.94 in 2.5 mi North - - 0.04 in Rain Rain
2:52 AM 57.0 °F 55.9 °F 96% 28.92 in 1.8 mi West 19.6 mph 34.5 mph 0.10 in Rain Rain
3:02 AM 55.0 °F 53.1 °F 93% 28.95 in 3.0 mi West 15.0 mph 29.9 mph 0.01 in Rain Light Rain
3:09 AM 54.0 °F 51.1 °F 90% 28.95 in 7.0 mi WNW 18.4 mph 35.7 mph 0.01 in Rain Light Rain
3:39 AM 51.1 °F 48.0 °F 89% 28.96 in 8.0 mi West 21.9 mph 29.9 mph 0.02 in Rain Light Rain
3:52 AM 50.0 °F 46.9 °F 89% 28.98 in 10.0 mi WNW 24.2 mph 40.3 mph 0.02 in   Overcast
4:04 AM 50.0 °F 46.0 °F 86% 28.99 in 10.0 mi West 19.6 mph 32.2 mph N/A   Overcast
4:52 AM 48.9 °F 45.0 °F 86% 29.00 in 10.0 mi West 12.7 mph 28.8 mph 0.00 in   Overcast
5:12 AM 48.9 °F 45.0 °F 86% 29.02 in 10.0 mi West 12.7 mph 35.7 mph 0.00 in Rain Light Rain
5:52 AM 48.9 °F 42.1 °F 77% 29.04 in 10.0 mi West 13.8 mph 27.6 mph 0.00 in   Overcast
6:10 AM 48.9 °F 41.0 °F 74% 29.05 in 10.0 mi West 12.7 mph 25.3 mph N/A   Overcast
6:52 AM 48.9 °F 41.0 °F 74% 29.08 in 10.0 mi WSW 11.5 mph 24.2 mph N/A   Mostly Cloudy
7:25 AM 48.9 °F 42.1 °F 77% 29.10 in 10.0 mi West 12.7 mph 26.5 mph N/A   Overcast
7:52 AM 48.9 °F 42.1 °F 77% 29.12 in 10.0 mi WSW 12.7 mph 24.2 mph N/A   Overcast
8:52 AM 48.9 °F 42.1 °F 77% 29.14 in 10.0 mi West 11.5 mph 18.4 mph 0.00 in   Overcast
9:52 AM 51.1 °F 39.9 °F 66% 29.12 in - WSW 11.5 mph 24.2 mph N/A   Unknown
10:52 AM 53.1 °F 39.9 °F 61% 29.12 in 10.0 mi WSW 19.6 mph 29.9 mph N/A   Overcast
11:52 AM 54.0 °F 39.9 °F 59% 29.13 in 10.0 mi West 18.4 mph 31.1 mph 0.00 in   Overcast
12:52 PM 52.0 °F 41.0 °F 66% 29.12 in 10.0 mi WSW 13.8 mph 27.6 mph 0.00 in Rain Light Rain
1:52 PM 54.0 °F 42.1 °F 64% 29.13 in 10.0 mi West 16.1 mph 25.3 mph 0.00 in   Overcast
2:52 PM 53.1 °F 43.0 °F 69% 29.17 in 10.0 mi West 18.4 mph 28.8 mph 0.00 in Rain Light Rain
3:52 PM 52.0 °F 43.0 °F 71% 29.23 in 10.0 mi West 11.5 mph 20.7 mph 0.00 in   Overcast
4:27 PM 51.1 °F 44.1 °F 77% 29.25 in 8.0 mi West 12.7 mph 26.5 mph 0.00 in Rain Light Rain
4:52 PM 51.1 °F 43.0 °F 74% 29.25 in 10.0 mi WSW 18.4 mph 26.5 mph 0.00 in Rain Light Rain
5:52 PM 48.9 °F 46.0 °F 90% 29.29 in 10.0 mi WSW 9.2 mph - 0.03 in Rain Light Rain
6:52 PM 50.0 °F 45.0 °F 83% 29.32 in 10.0 mi West 6.9 mph 16.1 mph 0.00 in   Overcast
7:52 PM 51.1 °F 42.1 °F 71% 29.36 in 10.0 mi West 17.3 mph 25.3 mph N/A   Mostly Cloudy
8:52 PM 51.1 °F 41.0 °F 68% 29.39 in 10.0 mi West 11.5 mph 21.9 mph N/A   Mostly Cloudy
9:52 PM 51.1 °F 41.0 °F 68% 29.43 in 10.0 mi West 9.2 mph 17.3 mph N/A   Overcast
10:52 PM 51.1 °F 41.0 °F 68% 29.46 in 10.0 mi West 10.4 mph - N/A   Overcast
11:52 PM 52.0 °F 42.1 °F 69% 29.49 in 10.0 mi West 6.9 mph - N/A   Overcast